Location: Recife
(8.0585°S, 34.8848°W)
Time: 11:48:12
(UTC-03:00)

Courier 1B - Pass Details

Date: 15 April 2026
Orbit: 962 x 1209 km, 28.3° (Epoch: 15 May)

Event Time Altitude Azimuth Distance (km) Brightness Sun altitude
Exits shadow 03:29:39 14° 338° (NNW) 2,681 9.6 -28.3°
Maximum altitude 03:34:54 31° 32° (NNE) 1,909 9.3 -27.0°
Drops below altitude 10° 03:41:30 10° 90° (E) 3,110 11.2 -25.4°
Sets 03:44:46 0° 100° (E) 4,095 12.0 -24.6°
